Regional Weather Roundup
Issued by NWS Grand Forks, ND

Home | Current Version | Previous Version | Graphics & Text | Print | Product List | Glossary On
Versions: 1 2 3 4 5 6 7 8 9 10 11 12 13 14 15 16 17 18 19 20 21 22 23 24 25 26 27 28 29 30 31 32 33 34 35 36 37 38 39 40 41 42 43 44 45 46 47 48 49 50
411
ASUS43 KFGF 021810
RWRFGF
PRAIRIE TO PINES  WEATHER ROUNDUP
NATIONAL WEATHER SERVICE EASTERN NORTH DAKOTA/GRAND FORKS ND
1200 PM CST FRI DEC 02 2016

 **SATELLITE DATA USED TO AUGMENT SKY COVER AT AUTOMATED STATIONS**
 *****  WEATHER ACROSS EASTERN NORTH DAKOTA  *****

CITY           SKY/WX    TMP DP  RH WIND       PRES   REMARKS
GRAND FORKS    CLOUDY    32  22  66 NW12      30.26S WCI  23
6HR MIN TEMP:  29; 6HR MAX TEMP:  32;

GRAND FRKS AFB CLOUDY    31  22  68 N8        30.26S WCI  24
GRAND FRKS NWS   N/A     30 N/A N/A NW7         N/A  WCI  23
DEVILS LAKE    CLOUDY    30  20  66 N5        30.24S
6HR MIN TEMP:  28; 6HR MAX TEMP:  30;

FARGO          CLOUDY    30  21  69 N9        30.27S WCI  22
WAHPETON ARPT  CLOUDY    28  21  74 NW8       30.28S WCI  20
$$

 ***** WEATHER ACROSS CENTRAL AND WESTERN NORTH DAKOTA  *****

CITY           SKY/WX    TMP DP  RH WIND       PRES   REMARKS
BISMARCK       CLOUDY    25  18  74 E8        30.26F WCI  16
6HR MIN TEMP:  24; 6HR MAX TEMP:  25;

MINOT          CLOUDY    27  23  85 SE6       30.20F WCI  20
6HR MIN TEMP:  26; 6HR MAX TEMP:  27; 6HR PCP: TRACE;

JAMESTOWN      CLOUDY    28  20  71 N7        30.24F WCI  21
6HR MIN TEMP:  26; 6HR MAX TEMP:  28;

MINOT AFB      CLOUDY    26  23  86 S7        30.20F WCI  19
GARRISON         N/A     27  22  81 S13       30.20F WCI  16
WILLISTON      CLOUDY    28  23  81 SW8       30.19S WCI  20
6HR MIN TEMP:  27; 6HR MAX TEMP:  28; 6HR PCP:  0.01;

DICKINSON      CLOUDY    26  23  88 S6        30.15F WCI  19
6HR MIN TEMP:  21; 6HR MAX TEMP:  26; 6HR PCP: TRACE;

HETTINGER      LGT SNOW  27  24  89 S6        30.19S FOG     WCI  20
6HR MIN TEMP:  23; 6HR MAX TEMP:  27; 6HR PCP: TRACE;

$$

 *****  OTHER AIRPORT OBSERVATIONS IN OUR AREA  *****

CITY           SKY/WX    TMP DP  RH WIND       PRES   REMARKS
WALHALLA         N/A     28  28 100 CALM      30.25S
GRAFTON AIRPOR CLOUDY    30  27  86 NW5       30.27F
VALLEY CITY AR CLOUDY    27  23  86 W7        30.27F WCI  19
CANDO          CLOUDY    28  27  93 W7        30.25F WCI  21
CAVALIER APRT    N/A     28  25  86 NW3       30.26S
GWINNER        CLOUDY    30  23  74 W5        30.27F
SHEYENNE NWR     N/A     28  20  72 N5        29.95S WCI  23
ROLLA          CLOUDY    27  27 100 SW8       30.21S WCI  18
 ***** THE ABOVE OBSERVATIONS ARE NON NWS ARE NOT QUALITY
       CONTROLLED AND MAY MIS-REPORT RAIN FOR SNOW...
$$

  *****  WEATHER ACROSS NORTHERN MINNESOTA  *****

CITY           SKY/WX    TMP DP  RH WIND       PRES   REMARKS
FLAG ISLAND    CLOUDY    21  18  86 NW6       30.21S WCI  14
WARROAD        CLOUDY    25  21  86 NW6       30.22F WCI  18
ROSEAU         PTSUNNY   27  21  80 W5        30.23S WCI  21
HALLOCK        CLOUDY    28  25  86 NW6       30.25S WCI  22
THF RVR FALLS  CLOUDY    27  22  81 N9        30.24S WCI  18
6HR MIN TEMP:  24; 6HR MAX TEMP:  27;

BAUDETTE       CLOUDY    24  21  88 NW6       30.21S WCI  17
6HR MIN TEMP:  21; 6HR MAX TEMP:  24;

WASKISH        CLOUDY    23  21  93 W5        30.22S WCI  17
CROOKSTON      CLOUDY    28  23  80 N12       30.26S WCI  18
GREENBUSH NDAW   N/A     27  21  80 NW3         N/A
$$
  *****  WEATHER ACROSS CENTRAL AND WEST MINNESOTA  *****

CITY           SKY/WX    TMP DP  RH WIND       PRES   REMARKS
FOSSTON        CLOUDY    23  18  80 NW7       30.24S WCI  15
BEMIDJI        CLOUDY    24  20  86 W7        30.21S WCI  16
PARK RAPIDS    CLOUDY    25  18  74 NW6       30.21S WCI  18
6HR MIN TEMP:  23; 6HR MAX TEMP:  25;

ELBOW LAKE     CLOUDY    26  21  80 CALM      30.26S
WADENA         CLOUDY    25  19  80 CALM      30.22S
DETROIT LAKES  CLOUDY    27  23  86 NW7       30.24S WCI  19
MOORHEAD       CLOUDY    28  21  74 N6        30.28R WCI  22
FERGUS FALLS   CLOUDY    27  19  74 N6        30.30S WCI  20
MORRIS MN      CLOUDY    28  21  74 NW7       30.25S WCI  21
STAPLES        CLOUDY    25  21  86 W5        30.22S WCI  19
$$
  *****  WEATHER ELSEWHERE ACROSS MINNESOTA  *****

CITY           SKY/WX    TMP DP  RH WIND       PRES   REMARKS
DULUTH         CLOUDY    27  22  81 NW9       30.16S WCI  18
6HR MIN TEMP:  26; 6HR MAX TEMP:  28;

INTRNTL FALLS  CLOUDY    26  22  84 W7        30.19S WCI  18
6HR MIN TEMP:  25; 6HR MAX TEMP:  26;

ELY            CLOUDY    23  21  93 NW3       30.16S
CLOQUET        CLOUDY    27  21  80 NW7       30.18S WCI  19
WHEATON        NOT AVBL
BRAINERD       CLOUDY    26  21  81 NW7       30.22S WCI  18
6HR MIN TEMP:  25; 6HR MAX TEMP:  26;

HIBBING        CLOUDY    26  21  81 N7        30.17F WCI  18
6HR MIN TEMP:  24; 6HR MAX TEMP:  26;

ALEXANDRIA     CLOUDY    26  22  84 NW6       30.24R WCI  19
6HR MIN TEMP:  25; 6HR MAX TEMP:  27;

SAINT CLOUD    CLOUDY    30  23  75 N7        30.23S WCI  23
6HR MIN TEMP:  29; 6HR MAX TEMP:  30;

MINNEAPOLIS    CLOUDY    33  23  66 W8        30.23S
6HR MIN TEMP:  31; 6HR MAX TEMP:  33;

$$

  *****  WEATHER ACROSS SOUTH DAKOTA  *****

CITY           SKY/WX    TMP DP  RH WIND       PRES   REMARKS
SIOUX FALLS    CLOUDY    33  28  81 NW5       30.26S
6HR MIN TEMP:  30; 6HR MAX TEMP:  33;

BROOKINGS      CLOUDY    30  23  75 NW13      30.23F WCI  20
WATERTOWN      CLOUDY    26  21  81 N7        30.24R WCI  18
6HR MIN TEMP:  25; 6HR MAX TEMP:  26;

HURON          CLOUDY    30  26  85 N10       30.28S WCI  21
6HR MIN TEMP:  28; 6HR MAX TEMP:  31;

SISSETON         N/A     28  21  75 N10       30.26F WCI  19
ABERDEEN       CLOUDY    29  21  72 NW6       30.27F WCI  23
6HR MIN TEMP:  28; 6HR MAX TEMP:  29; 6HR PCP: TRACE;

MITCHELL       CLOUDY    33  28  81 N6        30.29S
PIERRE         CLOUDY    30  26  85 E3        30.25F
6HR MIN TEMP:  28; 6HR MAX TEMP:  30; 6HR PCP: TRACE;

MOBRIDGE       CLOUDY    29  23  78 E7        30.23S WCI  22
RAPID CITY     CLOUDY    36  24  62 N12       30.19S
6HR MIN TEMP:  19; 6HR MAX TEMP:  38;

$$

  *****  SOME WEATHER IN NEARBY STATES *****

CITY           SKY/WX    TMP DP  RH WIND       PRES   REMARKS
GLASGOW MT     CLOUDY    28  24  85 S7        30.15F WCI  21
6HR MIN TEMP:  25; 6HR MAX TEMP:  28;

GREAT FALLS MT SUNNY     29  22  75 SW16      30.12F WCI  17
6HR MIN TEMP:  20; 6HR MAX TEMP:  29;

CHEYENNE WY    CLOUDY    31  17  56 NE7       30.16S WCI  24
6HR MIN TEMP:  18; 6HR MAX TEMP:  31;

SCOTTSBLUFF NE SUNNY     37  24  59 W9        30.22F
6HR MIN TEMP:  12; 6HR MAX TEMP:  37;

OMAHA NE       PTSUNNY   39  29  67 N8        30.28S
6HR MIN TEMP:  27; 6HR MAX TEMP:  41;

DES MOINES IA  CLOUDY    41  31  67 N6        30.26F
6HR MIN TEMP:  35; 6HR MAX TEMP:  41;

DAVENPORT IA   CLOUDY    39  30  70 NW14      30.22S
6HR MIN TEMP:  35; 6HR MAX TEMP:  40;

CHICAGO IL     CLOUDY    40  28  62 NW14      30.15S
6HR MIN TEMP:  37; 6HR MAX TEMP:  40; 6HR PCP: TRACE;

EAU CLAIRE WI  CLOUDY    32  23  69 W9        30.20S WCI  24
6HR MIN TEMP:  29; 6HR MAX TEMP:  32;

LA CROSSE WI   CLOUDY    35  23  61 NW10      30.22S
6HR MIN TEMP:  33; 6HR MAX TEMP:  35;

$$

  *****  SOME NATIONAL WEATHER *****

CITY           SKY/WX    TMP DP  RH WIND       PRES   REMARKS
LA GUARDIA NY  PTSUNNY   53  29  39 NW15G25   29.86F
6HR MIN TEMP:  44; 6HR MAX TEMP:  53;

RALEIGH NC     MOSUNNY   57  28  33 W8        30.10F
6HR MIN TEMP:  33; 6HR MAX TEMP:  57;

ATLANTA GA     MOSUNNY   57  27  31 NW14      30.23F
6HR MIN TEMP:  38; 6HR MAX TEMP:  58;

NEW ORLEANS LA PTSUNNY   64  46  52 E20       30.19F
6HR MIN TEMP:  57; 6HR MAX TEMP:  64;

OKLAHOMA CITY  CLOUDY    50  30  46 N7        30.17F
6HR MIN TEMP:  32; 6HR MAX TEMP:  50;

ALBUQUERQUE NM MOSUNNY   47  14  26 E18G26    30.00F
6HR MIN TEMP:  31; 6HR MAX TEMP:  47; 6HR PCP: TRACE;

SALT LAKE CITY MOSUNNY   33  23  66 N6        30.24S
6HR MIN TEMP:  25; 6HR MAX TEMP:  33;

LOS ANGELES CA MOSUNNY   63  13  14 N12       30.03R
6HR MIN TEMP:  55; 6HR MAX TEMP:  64;

BOISE ID       SUNNY   C1F1C2F2C3F3C4F4C5F5C6F6C7F7C8F8C9F9CaFaCbFbCcFcCd!



USA.gov is the U.S. government's official web portal to all federal, state and local government web resources and services.